Weather History for Cuiaba Marechal Ron, Brazil

Change the Weather History Date:

Sunday, July 21, 2013

  Actual Average Record
Temperature  
Mean Temperature 84 °F -  
Max Temperature 97 °F 90 °F 98 °F (2001)
Min Temperature 69 °F 67 °F 57 °F (2000)
Cooling Degree Days 20    
Growing Degree Days 34 (Base 50)    
Moisture  
Dew Point 64 °F    
Average Humidity 58    
Maximum Humidity 94    
Minimum Humidity 21    
Precipitation  
Precipitation 0.00 in - - ()
Sea Level Pressure  
Sea Level Pressure 29.89 in    
Wind  
Wind Speed 6 mph ()    
Max Wind Speed 17 mph    
Max Gust Speed -    
Visibility 7.4 miles    
Events      
Averages and records for this station are not official NWS values.
T = Trace of Precipitation, MM = Missing Value Source: Averaged Metar Reports

Daily Weather History Graph

Daily Weather History Graph

Search for Another Location

Airport:

Trip Planner

Search our weather history database for the weather conditions in past years. The results will help you decide how hot, cold, wet, or windy it might be!

Date:

Astronomy

Jul. 21, 2013 Rise Set
Actual Time 6:11 AM AMT 5:30 PM AMT
Civil Twilight 5:48 AM AMT 5:53 PM AMT
Nautical Twilight 5:21 AM AMT 6:20 PM AMT
Astronomical Twilight 4:55 AM AMT 6:46 PM AMT
Moon 4:34 PM AMT (7/21) 4:46 AM AMT (7/21)
Length of Visible Light 12h 05m
Length of Day
11h 19m
Waxing Gibbous, 98% of the Moon is Illuminated
Jul 21
Waxing Gibbous
Jul 22
Full
Jul 29
Last Quarter
Aug 6
New
Aug 14
First Quarter

Hourly Weather History & Observations

Time (AMT) Temp. Heat Index Dew Point Humidity Pressure Visibility Wind Dir Wind Speed Gust Speed Precip Events Conditions
12:00 AM 75.2 °F - 64.4 °F 69% 29.83 in - NW 6.9 mph - N/A   Clear
1:00 AM 77.0 °F - 64.4 °F 65% 29.83 in - NW 5.8 mph - N/A   Clear
2:00 AM 73 °F - 64 °F 65% 29.82 in 12 mi North 3.5 mph - -  
2:00 AM 73.4 °F - 64.4 °F 73% 29.83 in - North 3.5 mph - N/A   Clear
3:00 AM 73.4 °F - 64.4 °F 73% 29.83 in - NNW 2.3 mph - N/A   Clear
4:00 AM 71.6 °F - 64.4 °F 78% 29.83 in - NNW 4.6 mph - N/A   Clear
5:00 AM 68.0 °F - 66.2 °F 94% 29.92 in 6.2 mi ESE 3.5 mph - N/A   Scattered Clouds
6:00 AM 69.8 °F - 66.2 °F 88% 29.92 in - North 3.5 mph - N/A   Clear
7:00 AM 73.4 °F - 68.0 °F 83% 29.92 in - North 2.3 mph - N/A   Clear
8:00 AM 78 °F - 66 °F 59% 29.94 in 12 mi North 4.6 mph - -  
8:00 AM 78.8 °F - 66.2 °F 65% 29.95 in - North 4.6 mph - N/A   Clear
9:00 AM 82.4 °F 84.6 °F 66.2 °F 58% 29.98 in - NW 10.4 mph - N/A   Clear
10:00 AM 87.8 °F 90.4 °F 66.2 °F 49% 29.98 in 6.2 mi NW 6.9 mph - N/A   Partly Cloudy
11:00 AM 89.6 °F 92.2 °F 66.2 °F 46% 29.95 in 6.2 mi West 6.9 mph - N/A   Scattered Clouds
12:00 PM 93.2 °F 94.1 °F 62.6 °F 36% 29.92 in 6.2 mi NW 16.1 mph - N/A   Scattered Clouds
1:00 PM 96.8 °F 97.1 °F 60.8 °F 30% 29.89 in 6.2 mi NNW 12.7 mph - N/A   Scattered Clouds
2:00 PM 97 °F - 61 °F 21%  in 12 mi NNW 11.5 mph - -   Partly Cloudy
2:00 PM 96.8 °F 97.1 °F 60.8 °F 30% 29.89 in 6.2 mi NNW 11.5 mph - N/A   Scattered Clouds
3:00 PM 93.2 °F 92.6 °F 59.0 °F 32% 29.83 in 6.2 mi NW 10.4 mph - N/A   Scattered Clouds
4:00 PM 91.4 °F 90.7 °F 59.0 °F 34% 29.83 in 6.2 mi NW 10.4 mph - N/A   Scattered Clouds
5:00 PM 87.8 °F 87.6 °F 60.8 °F 40% 29.83 in 6.2 mi NNW 5.8 mph - N/A   Partly Cloudy
6:00 PM 86.0 °F 86.6 °F 62.6 °F 45% 29.86 in 6.2 mi NNE 4.6 mph - N/A   Scattered Clouds
7:00 PM 78.8 °F - 64.4 °F 61% 29.89 in 6.2 mi North 3.5 mph - N/A   Partly Cloudy
8:00 PM 78.8 °F - 62.6 °F 57% 29.89 in 6.2 mi Calm Calm - N/A   Partly Cloudy
9:00 PM 77.0 °F - 64.4 °F 65% 29.92 in - NNW 4.6 mph - N/A   Clear
10:00 PM 73.4 °F - 64.4 °F 73% 29.98 in - SW 9.2 mph - N/A   Clear
11:00 PM 69.8 °F - 60.8 °F 73% 30.01 in - SSW 17.3 mph - N/A   Clear